Showing default

SYMPHONIE 1, 7578

Orbit data source: Space-Track

SYMPHONIE 1, 7578 is an FR and DE payload satellite in GEO that was launched on Thu, 19 Dec 1974 UTC via a DELTA 2914 launch vehicle from the Air Force Eastern Test Range (AFETR). Payload-class satellites include a variety of spacecraft equipped with specific instruments for various scientific and technological missions. These include communications satellites like Starlink; space stations such as the ISS; scientific satellites like the Hubble; Earth observation satellites from companies like Planet Labs, Umbra, and HawkEye 360; GPS; miniature CubeSats for education and research; and military/defense satellites.

Not visible in the next 10 days
Identifier
7578, 1974-101A
Orbit
GEO
Country
Flag of UnknownUnknown / FGER
Related business
Manufacturer
AELM/CIFAS
Mission
Spacecraft
Bus & Motor
SYMPHONIE, S400
Mass
400 kg wet, 240 kg dry
Launch date (UTC)
1974-12-19 (51 years ago)
Launch vehicle
DELTA 2914
Launch site
Air Force Eastern Test Range (AFETR)
Object type
Payload
Rocket body
Debris
Shape & HBR
Unknown
Radar Cross Section
Large (>1 m²)

Expand to show TLE details & history
Last TLE update: 17 hours ago

TLE from 17 hours ago
0 SYMPHONIE 1
1 07578U 74101A   25340.74064363 -.00000285  00000-0  00000-0 0  9993
2 07578   5.0696 279.4461 0005012 346.3157 220.8373  0.99963741115274
Epoch: 2025-12-06T17:46Z
TLE epoch observation values (Epoch: 2025-12-06T17:46:31.609Z)
Latitude
-2.30211°
Longitude
144.05118°
Altitude
35,889.09 km
Speed
3.07 km/s
True Right ascension
08h 25m 47s
True Declination
-2° 17' 59"
Sunlit
Object was in daylight at epoch
Visualization orbit readout
Latitude
Unknown
Longitude
Unknown
Altitude
Unknown
Speed
Unknown
Apparent Right ascension
Unknown
Apparent Declination
Unknown
Sunlit
N/A
Visualization observer readout
Local Sidereal Time
09:07:42
Azimuth
Unknown
Elevation
Unknown
Doppler factor
Unknown
Orbital elements
Apogee altitude
35,895.406 km
Perigee altitude
35,853.052 km
Semi-major axis
42,252.366 km
Eccentricity
0.0005
Inclination
5.0696°
RAAN
279.4461°
Arg. of periapsis
346.3157°
True anomaly
220.79976°
Mean anomaly
220.8373°
Eccentric anomaly
220.81853°
Mean motion
0.2499 °/min
Orbital period
1,440.58 mins
BSTAR
0
Loading maneuver chart data...
Computing Atmospheric mass density...
Loading historical data...
Loading historical data...
Loading historical data...
Loading historical data...
Loading historical data...
Loading historical data...
Loading historical data...

Documentation

Showing up to 5 results
|